Home   Weather   Destin   Past weeks
Flag for USA

Past Weather in Destin, Florida, USA — Yesterday and Last 2 Weeks

Now
78 °F

Mostly cloudy.


Feels Like: 81 °F
Forecast: 82 / 74 °F
Wind: 3 mph from East

Location: Destin-Ft. Walton Beach Airport

Current Time: Oct 15, 2019 at 11:56:57 am

Latest Report: Oct 15, 2019 at 11:10 am


Visibility: 10 mi

Pressure: 30.01 "Hg

Humidity: 87%

Dew Point: 74 °F

Location of DestinLocation

Past Weather in Destin — Graph

°F

Destin Temperature Yesterday

Maximum temperature yesterday: 85 °F (at 1:53 pm)
Minimum temperature yesterday: 73 °F (at 4:53 am)
Average temperature yesterday: 77 °F

High & Low Weather Summary for the Past Weeks

 TemperatureHumidityPressure
High92 °F (Oct 1, 11:53 am)97% (Oct 15, 4:53 am)30.13 "Hg (Oct 15, 4:53 am)
Low69 °F (Oct 10, 6:53 am)44% (Oct 1, 11:53 am)29.89 "Hg (Oct 7, 4:53 pm)
Average81 °F72%30.00 "Hg
* Reported Sep 30 10:53 am — Oct 15 10:22 am, Destin. Weather by CustomWeather, © 2019

Note: Actual official high and low records may vary slightly from our data, if they occured in-between our weather recording intervals... More about our weather records

Advertising

Destin Weather History for the Previous 24 Hours

Scroll right to see more
 ConditionsComfort  
Time TempWeatherWind HumidityBarometerVisibility
10:22 am
Tue, Oct 15
77 °FPartly sunny.7 mph90%30.01 "Hg10 mi
9:53 am76 °FBroken clouds.7 mph94%30.01 "Hg10 mi
8:53 am75 °FPartly sunny.9 mph94%30.01 "Hg10 mi
7:53 am75 °FLight rain. Fog.7 mph94%30.01 "Hg5 mi
7:27 am75 °FPartly sunny.6 mph94%30.01 "Hg10 mi
7:02 am75 °FPartly sunny.6 mph94%30.01 "Hg10 mi
6:53 am75 °FPartly sunny.3 mph94%30.01 "Hg10 mi
5:53 am74 °FSunny.3 mph94%30.02 "Hg10 mi
4:53 am74 °FClear.No wind97%30.01 "Hg10 mi
3:53 am75 °FClear.No wind94%30.01 "Hg10 mi
3:21 am75 °FPassing clouds.3 mph94%30.02 "Hg10 mi
2:53 am75 °FClear.No wind94%30.02 "Hg10 mi
1:53 am75 °FPartly cloudy.No wind90%30.03 "Hg10 mi
12:53 am74 °FPassing clouds.3 mph94%30.04 "Hg10 mi
11:53 pm
Mon, Oct 14
74 °FMostly cloudy.3 mph94%30.05 "Hg10 mi
11:13 pm74 °FMostly cloudy.5 mph94%30.07 "Hg10 mi
10:53 pm74 °FMostly cloudy.5 mph94%30.07 "Hg10 mi
9:53 pm75 °FLight rain. Overcast.5 mph94%30.08 "Hg10 mi
9:16 pm75 °FLight rain. Mostly cloudy.5 mph94%30.08 "Hg10 mi
8:53 pm75 °FMostly cloudy.3 mph94%30.07 "Hg10 mi
8:11 pm75 °FLow clouds.No wind96%30.07 "Hg10 mi
7:53 pm75 °FLight rain. Overcast.3 mph96%30.06 "Hg9 mi
6:53 pm75 °FRain. Fog.7 mph96%30.04 "Hg4 mi
6:44 pm75 °FHeavy rain. Fog.8 mph96%30.04 "Hg3 mi
6:21 pm75 °FHeavy rain. Fog.12 mph94%30.04 "Hg1 mi
6:06 pm77 °FHeavy rain. Fog.No wind90%30.04 "Hg2 mi
5:23 pm80 °FLight rain. Passing clouds.5 mph85%30.02 "Hg10 mi
4:53 pm82 °FPartly sunny.No wind79%30.01 "Hg10 mi
3:53 pm82 °FSunny.3 mph74%30.00 "Hg10 mi
2:53 pm83 °FSunny.6 mph72%30.00 "Hg10 mi
1:53 pm85 °FSunny.7 mph70%30.01 "Hg10 mi
12:53 pm84 °FScattered clouds.7 mph72%30.04 "Hg10 mi
11:53 am83 °FPassing clouds.7 mph70%30.06 "Hg10 mi
Weather by CustomWeather, © 2019

See weather overview